Regional Weather Roundup
Issued by NWS

Home | Current Version | Previous Version | Graphics & Text | Print | Product List | Glossary On
Versions: 1 2 3 4 5 6 7 8 9 10 11 12 13 14 15 16 17 18 19 20 21 22 23 24 25 26 27 28 29 30 31 32 33 34 35 36 37 38 39 40 41 42 43 44 45 46 47 48 49 50
000
ASUS43 KLOT 251708
RWRIL

ILLINOIS REGIONAL WEATHER ROUNDUP
NATIONAL WEATHER SERVICE CHICAGO/ROMEOVILLE IL
1200 PM CDT WED APR 25 2018

NOTE: "FAIR" INDICATES FEW OR NO CLOUDS BELOW 12,000 FEET WITH NO
SIGNIFICANT WEATHER AND/OR OBSTRUCTIONS TO VISIBILITY.

* THESE STATIONS ARE NOT UNDER NWS QUALITY CONTROL. THEY ALSO MAY NOT
  REPORT WEATHER SUCH AS PRECIPITATION OR FOG.

ILZ001-002-007-009-015-016-024-251800-
NORTHWEST ILLINOIS

CITY           SKY/WX    TMP DP  RH WIND       PRES   REMARKS
MOLINE         FAIR      60  35  39 NE14      30.12F
STERLING*      FAIR      60  35  39 N13       30.12F
SAVANNA*       FAIR      58  32  38 NE7       30.13F
$$

ILZ003-004-008-010-011-017-018-251800-
NORTH CENTRAL ILLINOIS

CITY           SKY/WX    TMP DP  RH WIND       PRES   REMARKS
ROCKFORD       FAIR      56  33  42 NE10G18   30.13F
FREEPORT*      FAIR      55  32  41 N12       30.13F
ROCHELLE*      FAIR      56  33  40 N13G20    30.11F
DE KALB*       FAIR      56  33  41 NE9G16    30.11S
PERU*          FAIR      60  36  40 NE12G17   30.10F
$$

ILZ005-006-012>014-019>023-251800-
NORTHEAST ILLINOIS

CITY           SKY/WX    TMP DP  RH WIND       PRES   REMARKS
CHICAGO-OHARE  FAIR      51  30  44 NE16      30.11S
CHICAGO-MIDWAY FAIR      53  32  44 N15       30.11S
AURORA         FAIR      57  33  40 NE14      30.09F
LANSING*       FAIR      46  37  69 N10G18    30.12R
JOLIET*        FAIR      56  33  41 NE13G18   30.10S
WAUKEGAN       FAIR      48  30  49 N15G24    30.11S
DUPAGE AIRPORT FAIR      56  33  42 NE9       30.09S
KANKAKEE*      FAIR      54  33  44 NE16      30.09S
WHEELING       FAIR      50  30  46 N17G24    30.13S
MORRIS*        FAIR      56  32  39 NE3       30.09S
ROMEOVILLE*    FAIR      55  31  41 N16G23    30.10S
NORTHERLY ISL    N/A     45  34  65 N14         N/A
$$

LMZ740>746-251800-
SOUTHERN LAKE MICHIGAN

STATION/POSITION SKY/WX   TEMP    WIND        PRES    VSBY  WAVE
                          AIR SEA DIR/SP/G                  HT/PER
                          (F)     (DEG/KT/KT) (MB)    (MI)  (FT/S)
HARRISON CRIB              40     350/ 19/ 20   N/A
BURNHAM HARBOR             44     350/ 12/ 19   N/A
CALUMET HARBOR             41     340/ 18/ 23 1019.5S
BURNS HARBOR               39     350/ 13/ 17 1020.0F
MICHIGAN CITY              40     340/ 20/ 22   N/A
ST. JOSEPH                 39 42  350/ 16/ 21 1019.4          5/ 6
$$

ILZ025>027-034>036-040-047-049-050-058-095>099-251800-
WEST-CENTRAL ILLINOIS

CITY           SKY/WX    TMP DP  RH WIND       PRES   REMARKS
QUINCY         CLOUDY    59  42  53 NE12      30.10F
GALESBURG*     FAIR      61  41  46 N13       30.12F
MACOMB*        PTSUNNY   58  39  48 N12G18    30.13F
JACKSONVILLE*  PTSUNNY   58  43  56 NE10G16   30.09F
PITTSFIELD*    CLOUDY    60  47  64 NE8       30.09F
$$

ILZ028>032-037-038-041>044-048-051>054-059>061-251800-
CENTRAL ILLINOIS

CITY           SKY/WX    TMP DP  RH WIND       PRES   REMARKS
PONTIAC        FAIR      60  37  42 NE13G18   30.10F
BLOOMINGTON    FAIR      59  40  49 NE14      30.09F
DECATUR        FAIR      61  45  55 NE10      30.06F
PEORIA         FAIR      59  40  49 NE9       30.11S
LACON*         FAIR      58  37  44 N8G16     30.10F
LINCOLN*       FAIR      61  45  56 NE8       30.08F
SPRINGFIELD    FAIR      62  46  55 N12G17    30.08S
TAYLORVILLE    FAIR      60  47  61 N7        30.07F
$$

ILZ033-039-045-046-055>057-062-063-251800-
EAST-CENTRAL ILLINOIS

CITY           SKY/WX    TMP DP  RH WIND       PRES   REMARKS
CHAMPAIGN      FAIR      59  44  57 N9        30.05F
DANVILLE*      FAIR      60  42  52 N15G21    30.02F
RANTOUL*       FAIR      60  43  51 N16       30.06F
MATTOON        FAIR      60  50  69 NE12      30.03F
PARIS*         FAIR      61  50  66 N9        30.05F
$$

ILZ079-100>102-251800-
SOUTHWEST ILLINOIS

CITY           SKY/WX    TMP DP  RH WIND       PRES   REMARKS
ALTON          CLOUDY    64  55  72 NE7       30.06R
BELLEVILLE     PTSUNNY   65  55  70 CALM      30.03S
CAHOKIA*       CLOUDY    65  49  56 N7        30.04S
SPARTA*        CLOUDY    64  53  67 NW6       30.04S
$$

ILZ064>066-069>071-074>076-080>082-084>086-088>090-092>094-251800-
SOUTH-CENTRAL ILLINOIS

CITY           SKY/WX    TMP DP  RH WIND       PRES   REMARKS
CARBONDALE     FAIR      68  54  60 N3        30.02S
CAIRO*         FAIR      69  53  57 SE5       30.02F
EFFINGHAM*     FAIR      64  54  70 N7        30.06S
MARION         MOSUNNY   66  52  59 E6        30.03F
MT. VERNON     PTSUNNY   68  54  60 VRB5      30.03F
CENTRALIA*     MOSUNNY   67  56  66 E8        30.03S
SALEM*         FAIR      66  53  61 NE6       30.03F
METROPOLIS*    FAIR      69  54  59 CALM      30.02F
$$

ILZ067-068-072-073-078-083-087-091-251800-
SOUTHEAST ILLINOIS

CITY           SKY/WX    TMP DP  RH WIND       PRES   REMARKS
LAWRENCEVILLE  FAIR      66  52  60 MISG      30.02F
FLORA*         FAIR      65  53  63 N6        30.03F
FAIRFIELD*     FAIR      65  52  61 N5        30.03S
HARRISBURG*    FAIR      67  56  69 N5        30.03F
ROBINSON*      FAIR      59  53  79 N9        30.04F
CARMI*         FAIR      66  53  64 CALM      30.02S
$$

ABBREVIATIONS USED IN REMARKS
   TC - TEMPERATURE IN CELSIUS
  WCI - WIND CHILL INDEX
   HX - HEAT INDEX
  VSB - VISIBILITY
$$





USA.gov is the U.S. government's official web portal to all federal, state and local government web resources and services.